This demonstration page uses our WeatherBlox Daily Observations layout. Learn more.

Left ArrowRight Arrow

34.02893, -84.19858

Hourly Observations for June 4, 2020

Temp ( °F °C ) Dew Point ( °F °C ) Humidity (%) Winds ( mph kmh ) Pressure ( in mb ) Visibility ( mi km ) Precip ( " mm )
12:53 am 00:53 Clear 73 22.8 66 18.9 79 79 W 3 6 29.94 1014 10 16 0.00 0.00
1:53 am 01:53 Mostly Clear 71 21.7 67 19.4 87 87 S 3 6 29.92 1013 10 16 0.00 0.00
2:53 am 02:53 Clear 70 21.1 68 20 93 93 Calm 29.91 1013 10 16 0.00 0.00
3:53 am 03:53 Clear 70 21.1 67 19.4 90 90 WSW 5 7 29.90 1013 10 16 0.00 0.00
4:53 am 04:53 Clear 68 20 67 19.4 96 96 Calm 29.90 1013 9 14 0.00 0.00
5:53 am 05:53 Mostly Cloudy 70 21.1 68 20 93 93 SW 6 9 29.92 1013 10 16 0.00 0.00
6:53 am 06:53 Sunny 70 21.1 68 20 93 93 SW 7 11 29.94 1014 9 14 0.00 0.00
7:53 am 07:53 Sunny 71 21.7 69 20.6 94 94 W 7 11 29.96 1015 9 14 0.00 0.00
8:53 am 08:53 Sunny 73 22.8 69 20.6 87 87 WSW 6 9 29.96 1015 10 16 0.00 0.00
9:53 am 09:53 Sunny 78 25.6 68 20 71 71 WNW 9 15 29.95 1014 10 16 0.00 0.00
10:53 am 10:53 Sunny 80 26.7 68 20 67 67 WNW 8 13 29.95 1014 10 16 0.00 0.00
11:53 am 11:53 Sunny 83 28.3 66 18.9 57 57 VRB 3 6 29.95 1014 10 16 0.00 0.00
12:53 pm 12:53 Partly Cloudy 84 28.9 68 20 59 59 VRB 6 9 29.94 1014 10 16 0.00 0.00
1:53 pm 13:53 Mostly Sunny 86 30 67 19.4 53 53 W 8 13 29.92 1013 10 16 0.00 0.00
2:53 pm 14:53 Mostly Cloudy 85 29.4 64 17.8 50 50 Calm 29.88 1012 10 16 0.00 0.00
3:53 pm 15:53 Mostly Sunny 85 29.4 65 18.3 51 51 Calm 29.87 1012 10 16 0.00 0.00
4:53 pm 16:53 Mostly Cloudy 84 28.9 65 18.3 53 53 SSE 8 13 29.86 1011 10 16 0.00 0.00
5:53 pm 17:53 Mostly Cloudy 84 28.9 65 18.3 53 53 S 8 13 29.84 1011 10 16 0.00 0.00
6:53 pm 18:53 Mostly Sunny 84 28.9 66 18.9 55 55 W 9 15 29.85 1011 10 16 0.00 0.00
7:30 pm 19:30 Mostly Cloudy with Nearby Thunderstorms 79 26.1 69 20.6 72 72 SSE 7 11 29.86 1011 10 16 0.00 0.00
7:53 pm 19:53 Cloudy with Strong Thunderstorms 76 24.4 71 21.7 85 85 undefined N/A 29.90 1012 1 2 0.17 4.32
7:55 pm 19:55 Cloudy with Strong Thunderstorms 73 22.8 70 21.1 90 90 S 31 50 29.90 1013 1 1 0.12 3.05
8:06 pm 20:06 Cloudy with Strong Thunderstorms 71 21.7 68 20 90 90 S 8 13 29.90 1012 1 1 0.63 16.00
8:11 pm 20:11 Cloudy with Thunderstorms 70 21.1 68 20 93 93 SSE 9 15 29.90 1013 1 2 0.66 16.76
8:15 pm 20:15 Cloudy with Thunderstorms 71 21.7 68 20 90 90 SSE 7 11 29.90 1012 4 6 0.66 16.76
8:23 pm 20:23 Cloudy with Nearby Thunderstorms 71 21.7 69 20.6 94 94 SE 6 9 29.90 1012 10 16 0.66 16.76
8:34 pm 20:34 Partly Cloudy 71 21.7 70 21.1 96 96 Calm 29.90 1012 10 16 0.66 16.76
8:53 pm 20:53 Partly Cloudy 72 22.2 70 21.1 94 94 Calm 29.89 1012 9 14 0.66 16.76
9:53 pm 21:53 Cloudy 73 22.8 71 21.7 94 94 Calm 29.91 1013 10 16 0.00 0.00
10:53 pm 22:53 Mostly Cloudy 73 22.8 71 21.7 94 94 Calm 29.91 1013 9 14 0.00 0.00
11:53 pm 23:53 Clear with Mist and Fog 71 21.7 71 21.7 100 100 Calm 29.91 1013 6 10 0.00 0.00

Powered by AerisWeather